Home > Time Zones > World Clock > Weather > Ghana > Accra > Past weeks

Flag for Ghana Weather past 2 weeks in Accra, Ghana

Now
75 °F

Light rain. Mostly cloudy.


Feels Like: 74 °F
Forecast: 77 / 83 °F
Wind: 6 mph from West

Location: Accra Airport

Current Time: Oct 1, 2014 at 7:30:17 AM

Latest Report: Oct 1, 2014 at 4:00 AM


Visibility: 5 mi

Pressure: 29.89 "Hg

Humidity: 94%

Dew point: 73 °F

Location of AccraLocation

Historic Weather in Accra — Graph

°F

Accra temperature yesterday

Maximum temperature yesterday: 84 °F (at 11:56 AM)
Minimum temperature yesterday: 75 °F (at 2:54 AM)
Average temperature yesterday: 79 °F

Past Weeks' High & Low Weather Summary

 TemperatureHumidityPressure
High84 °F (Sep 20, 12:00 PM)100% (Sep 18, 5:00 AM)30.01 "Hg (Sep 18, 5:00 AM)
Low70 °F (Sep 26, 8:00 PM)70% (Sep 20, 12:00 PM)29.83 "Hg (Sep 17, 3:56 PM)
Average78 °F87%29.92 "Hg
* Reported Sep 16 4:00 AM — Oct 1 4:00 AM, Accra, Weather by CustomWeather, © 2014

Note: Actual official high and low records may vary slightly from our data, if they occured in-between our weather recording intervals... More about our weather records

Advertising

Accra weather history for previous 24 hours

 ConditionsComfort  
Time TempWeatherWind HumidityBarometerVisibility
4:00 AM
Oct 1
75 °FLight rain. Mostly cloudy.6 mph94%29.89 "Hg5 mi
1:00 AM77 °FMostly cloudy.14 mph89%29.86 "HgN/A
12:00 AM75 °FMostly cloudy.16 mph94%29.89 "HgN/A
11:00 PM
Sep 30
77 °FLight rain. Mostly cloudy.15 mph89%29.89 "Hg3 mi
10:00 PM77 °FOvercast.13 mph94%29.89 "HgN/A
9:00 PM77 °FMostly cloudy.21 mph89%29.92 "HgN/A
8:00 PM77 °FMostly cloudy.22 mph89%29.89 "HgN/A
6:53 PM77 °FOvercast.21 mph89%29.86 "HgN/A
4:54 PM79 °FPartly sunny.25 mph84%29.83 "HgN/A
3:55 PM81 °FScattered clouds.22 mph79%29.83 "HgN/A
2:54 PM82 °FPassing clouds.22 mph79%29.83 "HgN/A
1:51 PM82 °FScattered clouds.22 mph74%29.86 "HgN/A
12:54 PM82 °FBroken clouds.17 mph79%29.86 "HgN/A
11:56 AM84 °FPartly sunny.13 mph74%29.89 "HgN/A
10:59 AM81 °FPartly sunny.14 mph79%29.92 "HgN/A
9:53 AM81 °FMostly cloudy.16 mph79%29.92 "HgN/A
8:51 AM79 °FPartly sunny.15 mph84%29.95 "HgN/A
7:53 AM77 °FPartly sunny.13 mph89%29.95 "HgN/A
Weather by CustomWeather, © 2014

See weather overviewHow to use our weather pages